Location: Αθήνα
(37.9839°N, 23.7283°E)
Time: 21:44:06
(UTC+03:00)

EO-79 - Pass Details

Date: 27 June 2024
Orbit: 555 x 577 km, 98.0° (Epoch: 18 July)

Event Time Altitude Azimuth Distance (km) Brightness Sun altitude
Rises 04:05:31 0° 24° (NNE) 2,744 ? -18.4°
Reaches altitude 10° 04:07:51 10° 35° (NE) 1,843 ? -18.2°
Maximum altitude 04:11:23 30° 97° (E) 1,007 ? -17.7°
Enters shadow 04:14:25 13° 156° (SSE) 1,664 ? -17.4°
